This is the latest recevied weather packets stored in our database for station/object JS1SZZ-13. If no packets are shown the sender has not sent any weather packets the latest 10 day(s).
| Time | Temp. | Humidity | Pressure | Rain* | Wind** | Luminosity | Snow |
|---|---|---|---|---|---|---|---|
| 1787802159 | 20° C | 93% | 1011.7 hPa | 1.78 mm | - | - | - |
| 1787801259 | 20° C | 93% | 1010.8 hPa | 2.79 mm | - | - | - |
| 1787800358 | 20° C | 93% | 1011.2 hPa | 4.06 mm | - | - | - |
| 1787799460 | 19.44° C | 93% | 1010.8 hPa | 4.57 mm | - | - | - |
| 1787798559 | 19.44° C | 93% | 1010.6 hPa | 4.32 mm | - | - | - |
| 1787797659 | 19.44° C | 93% | 1012.4 hPa | 3.56 mm | - | - | - |
| 1787796758 | 19.44° C | 93% | 1011.7 hPa | 3.81 mm | - | - | - |
| 1787795859 | 19.44° C | 93% | 1011.3 hPa | 4.32 mm | - | - | - |
| 1787794959 | 19.44° C | 93% | 1011.4 hPa | 5.59 mm | - | - | - |
| 1787794058 | 19.44° C | 94% | 1011.3 hPa | 7.62 mm | - | - | - |
| 1787793158 | 19.44° C | 94% | 1011.9 hPa | 6.86 mm | - | - | - |
| 1787792258 | 19.44° C | 94% | 1011.9 hPa | 5.59 mm | - | - | - |
| 1787791359 | 19.44° C | 93% | 1011.9 hPa | 4.06 mm | - | - | - |
| 1787790459 | 19.44° C | 93% | 1011.7 hPa | 1.02 mm | - | - | - |
| 1787789559 | 19.44° C | 93% | 1011.3 hPa | 0.76 mm | - | - | - |
| 1787788659 | 19.44° C | 94% | 1011.1 hPa | 1.02 mm | - | - | - |
| 1787787758 | 19.44° C | 94% | 1011.3 hPa | 0.76 mm | - | - | - |
| 1787786859 | 19.44° C | 94% | 1011.4 hPa | 0.76 mm | - | - | - |
| 1787785959 | 18.89° C | 93% | 1011.3 hPa | 0.51 mm | - | - | - |
| 1787785058 | 18.89° C | 93% | 1011.1 hPa | 0.25 mm | - | - | - |
| 1787784159 | 18.89° C | 93% | 1011.1 hPa | 0.25 mm | - | - | - |
| 1787783259 | 18.89° C | 93% | 1011.2 hPa | 0.25 mm | - | - | - |
| 1787782358 | 18.89° C | 93% | 1011.4 hPa | 0.76 mm | - | - | - |
| 1787781458 | 18.33° C | 94% | 1011.1 hPa | 1.27 mm | - | - | - |
| 1787780559 | 18.33° C | 94% | 1011.1 hPa | 2.79 mm | - | - | - |
* Rain latest hour (hover to see other rain measurements)
** Current wind speed in m/s (hover to see current wind gust speed)